Pullman, WA

7:51 AM PDT on March 24, 2017 (GMT -0700)
Pullman-Moscow Regional

Weather History for KPUW - April, 2013

Change the Weather History Date:

Wednesday, April 10, 2013

  Actual Average Record
Temperature  
Mean Temperature 50 °F 45 °F  
Max Temperature 57 °F 55 °F 75 °F (1949)
Min Temperature 42 °F 35 °F 24 °F (1977)
Degree Days  
Heating Degree Days 15 20  
Month to date heating degree days 175 210  
Since 1 July heating degree days 5331 5669  
Cooling Degree Days 0 0  
Month to date cooling degree days 0 0  
Year to date cooling degree days 0 0  
Moisture  
Dew Point 38 °F    
Average Humidity 65    
Maximum Humidity 80    
Minimum Humidity 50    
Precipitation  
Precipitation 0.11 in 0.05 in 0.96 in (1992)
Month to date precipitation 1.11 0.61  
Year to date precipitation 4.42 6.00  
Sea Level Pressure  
Sea Level Pressure 30.03 in    
Wind  
Wind Speed 14 mph (SSW)    
Max Wind Speed 30 mph    
Max Gust Speed 43 mph    
Visibility 9 miles    
Events Rain , Thunderstorm    
T = Trace of Precipitation, MM = Missing Value Source: NWS Daily Summary

Daily Weather History Graph

Daily Weather History Graph

Search for Another Location

Airport or City:

Trip Planner

Search our weather history database for the weather conditions in past years. The results will help you decide how hot, cold, wet, or windy it might be!

Date:

Astronomy

Apr. 10, 2013 Rise Set
Actual Time 6:09 AM PDT 7:30 PM PDT
Civil Twilight 5:38 AM PDT 8:01 PM PDT
Nautical Twilight 5:00 AM PDT 8:39 PM PDT
Astronomical Twilight 4:20 AM PDT 9:20 PM PDT
Moon 6:06 AM PDT (4/10) 8:14 PM PDT (4/10)
Length of Visible Light 14h 23m
Length of Day
13h 20m
New Moon, 0% of the Moon is Illuminated
Apr 10
New Moon
Apr 18
First Quarter
Apr 25
Full
May 2
Last Quarter
May 9
New

Hourly Weather History & Observations

Time (PDT) Temp. Windchill Dew Point Humidity Pressure Visibility Wind Dir Wind Speed Gust Speed Precip Events Conditions
12:53 AM 44.1 °F - 34.0 °F 68% 30.24 in 10.0 mi Calm Calm - N/A   Overcast
1:53 AM 43.0 °F 41.3 °F 35.1 °F 74% 30.22 in 10.0 mi East 3.5 mph - N/A   Overcast
2:53 AM 43.0 °F 39.5 °F 35.1 °F 74% 30.20 in 10.0 mi ESE 5.8 mph - N/A   Overcast
3:53 AM 44.1 °F - 35.1 °F 71% 30.20 in 10.0 mi Calm Calm - N/A   Overcast
4:53 AM 42.1 °F 36.6 °F 34.0 °F 73% 30.17 in 10.0 mi ESE 9.2 mph - N/A   Partly Cloudy
5:53 AM 44.1 °F 39.5 °F 33.1 °F 65% 30.16 in 10.0 mi East 8.1 mph - N/A   Overcast
6:53 AM 43.0 °F 37.7 °F 34.0 °F 71% 30.16 in 10.0 mi ESE 9.2 mph - N/A   Overcast
7:53 AM 44.1 °F 38.1 °F 35.1 °F 71% 30.13 in 10.0 mi East 11.5 mph - N/A   Overcast
8:53 AM 46.0 °F 39.6 °F 33.1 °F 61% 30.11 in 10.0 mi SE 15.0 mph - N/A   Overcast
9:53 AM 46.9 °F - 35.1 °F 63% 30.08 in 10.0 mi SE 15.0 mph - N/A   Overcast
10:53 AM 48.0 °F - 36.0 °F 63% 30.04 in 10.0 mi SE 15.0 mph - N/A   Overcast
11:53 AM 48.9 °F - 37.0 °F 64% 30.01 in 10.0 mi SSE 12.7 mph - N/A   Overcast
12:53 PM 48.0 °F - 39.0 °F 71% 29.99 in 3.0 mi SE 9.2 mph - 0.00 in Rain Light Rain
1:49 PM 48.2 °F - 42.8 °F 82% 29.93 in 2.5 mi SSE 5.8 mph - 0.04 in Rain Rain
1:53 PM 48.9 °F - 43.0 °F 80% 29.95 in 2.5 mi South 9.2 mph - 0.05 in Rain Rain
2:01 PM 50.0 °F - 44.6 °F 82% 29.93 in 5.0 mi SSW 8.1 mph - 0.00 in Rain Light Rain
2:53 PM 54.0 °F - 44.1 °F 69% 29.93 in 10.0 mi WSW 25.3 mph 34.5 mph 0.01 in   Overcast
3:25 PM 53.6 °F - 44.6 °F 72% 29.91 in 10.0 mi WSW 23.0 mph 35.7 mph N/A   Overcast
3:37 PM 53.6 °F - 44.6 °F 72% 29.90 in 10.0 mi SW 19.6 mph 31.1 mph N/A   Mostly Cloudy
3:53 PM 54.0 °F - 44.1 °F 69% 29.91 in 10.0 mi WSW 20.7 mph 27.6 mph N/A   Overcast
4:22 PM 55.4 °F - 41.0 °F 58% 29.89 in 9.0 mi WSW 20.7 mph 34.5 mph 0.01 in Thunderstorm Overcast
4:37 PM 51.8 °F - 39.2 °F 62% 29.89 in 3.0 mi WSW 18.4 mph 36.8 mph 0.03 in Rain Rain
4:53 PM 54.0 °F - 41.0 °F 62% 29.91 in 10.0 mi WSW 26.5 mph 35.7 mph 0.05 in   Overcast
5:53 PM 55.0 °F - 39.0 °F 55% 29.92 in 10.0 mi WSW 28.8 mph 40.3 mph N/A   Partly Cloudy
6:53 PM 53.1 °F - 37.0 °F 55% 29.96 in 10.0 mi West 20.7 mph 31.1 mph N/A   Scattered Clouds
7:53 PM 51.1 °F - 33.1 °F 50% 29.99 in 10.0 mi West 19.6 mph 26.5 mph N/A   Overcast
8:53 PM 46.9 °F - 35.1 °F 63% 30.03 in 10.0 mi West 13.8 mph 23.0 mph N/A   Overcast
9:53 PM 45.0 °F 38.5 °F 34.0 °F 65% 30.06 in 10.0 mi WSW 13.8 mph 21.9 mph N/A   Mostly Cloudy
10:53 PM 44.1 °F 36.8 °F 33.1 °F 65% 30.08 in 10.0 mi WSW 16.1 mph - N/A   Overcast
11:53 PM 43.0 °F 34.8 °F 34.0 °F 71% 30.09 in 10.0 mi WSW 18.4 mph 25.3 mph N/A   Overcast